<?xml version="1.0" encoding="UTF-8" standalone="no" ?>
<gpx xmlns="http://www.topografix.com/GPX/1/1" xmlns:xsi="http://www.w3.org/2001/XMLSchema-instance" xsi:schemaLocation="http://www.topografix.com/GPX/1/1 http://www.topografix.com/GPX/1/1/gpx.xsd" version="1.1" creator="VisuGPX - https://www.visugpx.com">
  <metadata>
    <name>Tour Meygal</name>
    <desc><![CDATA[grp_trc:Mézenc]]></desc>
  </metadata>
  <trk>
    <name><![CDATA[5_Sucs depuis Prébois 10,5kms]]></name>
    <cmt><![CDATA[16:25:18]]></cmt>
    <desc><![CDATA[<html dir="ltr"><head></head><body contenteditable="true">comment ...</body></html>]]></desc>
    <trkseg>
      <trkpt lat="44.85346" lon="4.15691">
        <ele>1433</ele>
        <time>2022-05-08T14:25:18Z</time>
      </trkpt>
      <trkpt lat="44.85346" lon="4.15691">
        <ele>1433</ele>
        <time>2022-05-08T14:25:18Z</time>
      </trkpt>
      <trkpt lat="44.85346" lon="4.15691">
        <ele>1433</ele>
        <time>2022-05-08T14:25:18Z</time>
      </trkpt>
      <trkpt lat="44.85318" lon="4.15728">
        <ele>1433</ele>
        <time>2022-05-08T14:25:18Z</time>
      </trkpt>
      <trkpt lat="44.85306" lon="4.15753">
        <ele>1433</ele>
        <time>2022-05-08T14:25:18Z</time>
      </trkpt>
      <trkpt lat="44.85295" lon="4.15799">
        <ele>1434</ele>
        <time>2022-05-08T14:25:18Z</time>
      </trkpt>
      <trkpt lat="44.85298" lon="4.15811">
        <ele>1435</ele>
        <time>2022-05-08T14:25:18Z</time>
      </trkpt>
      <trkpt lat="44.8531" lon="4.15825">
        <ele>1436</ele>
        <time>2022-05-08T14:25:18Z</time>
      </trkpt>
      <trkpt lat="44.8531" lon="4.1588">
        <ele>1437</ele>
        <time>2022-05-08T14:25:18Z</time>
      </trkpt>
      <trkpt lat="44.8531" lon="4.1588">
        <ele>1443</ele>
        <time>2022-05-08T14:25:18Z</time>
      </trkpt>
      <trkpt lat="44.85309" lon="4.15904">
        <ele>1442</ele>
        <time>2022-05-08T14:25:18Z</time>
      </trkpt>
      <trkpt lat="44.85298" lon="4.15923">
        <ele>1443</ele>
        <time>2022-05-08T14:25:18Z</time>
      </trkpt>
      <trkpt lat="44.85239" lon="4.15961">
        <ele>1445</ele>
        <time>2022-05-08T14:25:18Z</time>
      </trkpt>
      <trkpt lat="44.85092" lon="4.16329">
        <ele>1453</ele>
        <time>2022-05-08T14:25:18Z</time>
      </trkpt>
      <trkpt lat="44.85084" lon="4.1634">
        <ele>1457</ele>
        <time>2022-05-08T14:25:18Z</time>
      </trkpt>
      <trkpt lat="44.8508" lon="4.16354">
        <ele>1459</ele>
        <time>2022-05-08T14:25:18Z</time>
      </trkpt>
      <trkpt lat="44.85065" lon="4.16364">
        <ele>1461</ele>
        <time>2022-05-08T14:25:18Z</time>
      </trkpt>
      <trkpt lat="44.85047" lon="4.16356">
        <ele>1462</ele>
        <time>2022-05-08T14:25:18Z</time>
      </trkpt>
      <trkpt lat="44.8501" lon="4.16318">
        <ele>1463</ele>
        <time>2022-05-08T14:25:18Z</time>
      </trkpt>
      <trkpt lat="44.84985" lon="4.1632">
        <ele>1464</ele>
        <time>2022-05-08T14:25:18Z</time>
      </trkpt>
      <trkpt lat="44.84965" lon="4.16327">
        <ele>1465</ele>
        <time>2022-05-08T14:25:18Z</time>
      </trkpt>
      <trkpt lat="44.84955" lon="4.16325">
        <ele>1465</ele>
        <time>2022-05-08T14:25:18Z</time>
      </trkpt>
      <trkpt lat="44.84947" lon="4.16329">
        <ele>1465</ele>
        <time>2022-05-08T14:25:18Z</time>
      </trkpt>
      <trkpt lat="44.8494" lon="4.16336">
        <ele>1465</ele>
        <time>2022-05-08T14:25:18Z</time>
      </trkpt>
      <trkpt lat="44.84922" lon="4.16342">
        <ele>1466</ele>
        <time>2022-05-08T14:25:18Z</time>
      </trkpt>
      <trkpt lat="44.84901" lon="4.16363">
        <ele>1466</ele>
        <time>2022-05-08T14:25:18Z</time>
      </trkpt>
      <trkpt lat="44.84899" lon="4.16376">
        <ele>1467</ele>
        <time>2022-05-08T14:25:18Z</time>
      </trkpt>
      <trkpt lat="44.84919" lon="4.16447">
        <ele>1468</ele>
        <time>2022-05-08T14:25:18Z</time>
      </trkpt>
      <trkpt lat="44.8492" lon="4.16457">
        <ele>1468</ele>
        <time>2022-05-08T14:25:18Z</time>
      </trkpt>
      <trkpt lat="44.84915" lon="4.16477">
        <ele>1469</ele>
        <time>2022-05-08T14:25:18Z</time>
      </trkpt>
      <trkpt lat="44.84908" lon="4.16485">
        <ele>1469</ele>
        <time>2022-05-08T14:25:18Z</time>
      </trkpt>
      <trkpt lat="44.84908" lon="4.16485">
        <ele>1472</ele>
        <time>2022-05-08T14:25:18Z</time>
      </trkpt>
      <trkpt lat="44.84902" lon="4.16501">
        <ele>1472</ele>
        <time>2022-05-08T14:25:18Z</time>
      </trkpt>
      <trkpt lat="44.84899" lon="4.1656">
        <ele>1473</ele>
        <time>2022-05-08T14:25:18Z</time>
      </trkpt>
      <trkpt lat="44.84886" lon="4.16582">
        <ele>1474</ele>
        <time>2022-05-08T14:25:18Z</time>
      </trkpt>
      <trkpt lat="44.8481" lon="4.16659">
        <ele>1475</ele>
        <time>2022-05-08T14:25:18Z</time>
      </trkpt>
      <trkpt lat="44.84796" lon="4.16684">
        <ele>1475</ele>
        <time>2022-05-08T14:25:18Z</time>
      </trkpt>
      <trkpt lat="44.8479" lon="4.16615">
        <ele>1476</ele>
        <time>2022-05-08T14:25:18Z</time>
      </trkpt>
      <trkpt lat="44.84785" lon="4.16579">
        <ele>1476</ele>
        <time>2022-05-08T14:25:18Z</time>
      </trkpt>
      <trkpt lat="44.84781" lon="4.16543">
        <ele>1477</ele>
        <time>2022-05-08T14:25:18Z</time>
      </trkpt>
      <trkpt lat="44.84769" lon="4.16506">
        <ele>1478</ele>
        <time>2022-05-08T14:25:18Z</time>
      </trkpt>
      <trkpt lat="44.84763" lon="4.1647">
        <ele>1479</ele>
        <time>2022-05-08T14:25:18Z</time>
      </trkpt>
      <trkpt lat="44.84601" lon="4.161">
        <ele>1504</ele>
        <time>2022-05-08T14:25:18Z</time>
      </trkpt>
      <trkpt lat="44.84577" lon="4.16064">
        <ele>1521</ele>
        <time>2022-05-08T14:25:18Z</time>
      </trkpt>
      <trkpt lat="44.84542" lon="4.15991">
        <ele>1538</ele>
        <time>2022-05-08T14:25:18Z</time>
      </trkpt>
      <trkpt lat="44.84613" lon="4.16246">
        <ele>1527</ele>
        <time>2022-05-08T14:25:18Z</time>
      </trkpt>
      <trkpt lat="44.84662" lon="4.1636">
        <ele>1516</ele>
        <time>2022-05-08T14:25:18Z</time>
      </trkpt>
      <trkpt lat="44.84753" lon="4.167">
        <ele>1498</ele>
        <time>2022-05-08T14:25:18Z</time>
      </trkpt>
      <trkpt lat="44.84753" lon="4.167">
        <ele>1475</ele>
        <time>2022-05-08T14:25:18Z</time>
      </trkpt>
      <trkpt lat="44.84735" lon="4.16704">
        <ele>1475</ele>
        <time>2022-05-08T14:25:18Z</time>
      </trkpt>
      <trkpt lat="44.84747" lon="4.16733">
        <ele>1475</ele>
        <time>2022-05-08T14:25:18Z</time>
      </trkpt>
      <trkpt lat="44.84751" lon="4.16751">
        <ele>1475</ele>
        <time>2022-05-08T14:25:18Z</time>
      </trkpt>
      <trkpt lat="44.84725" lon="4.16889">
        <ele>1475</ele>
        <time>2022-05-08T14:25:18Z</time>
      </trkpt>
      <trkpt lat="44.84723" lon="4.16947">
        <ele>1476</ele>
        <time>2022-05-08T14:25:18Z</time>
      </trkpt>
      <trkpt lat="44.84712" lon="4.16997">
        <ele>1477</ele>
        <time>2022-05-08T14:25:18Z</time>
      </trkpt>
      <trkpt lat="44.84705" lon="4.17021">
        <ele>1477</ele>
        <time>2022-05-08T14:25:18Z</time>
      </trkpt>
      <trkpt lat="44.84701" lon="4.1704">
        <ele>1477</ele>
        <time>2022-05-08T14:25:18Z</time>
      </trkpt>
      <trkpt lat="44.84687" lon="4.17079">
        <ele>1477</ele>
        <time>2022-05-08T14:25:18Z</time>
      </trkpt>
      <trkpt lat="44.84675" lon="4.17148">
        <ele>1477</ele>
        <time>2022-05-08T14:25:18Z</time>
      </trkpt>
      <trkpt lat="44.84669" lon="4.17155">
        <ele>1476</ele>
        <time>2022-05-08T14:25:18Z</time>
      </trkpt>
      <trkpt lat="44.84661" lon="4.1716">
        <ele>1476</ele>
        <time>2022-05-08T14:25:18Z</time>
      </trkpt>
      <trkpt lat="44.84655" lon="4.1717">
        <ele>1475</ele>
        <time>2022-05-08T14:25:18Z</time>
      </trkpt>
      <trkpt lat="44.8465" lon="4.17183">
        <ele>1475</ele>
        <time>2022-05-08T14:25:18Z</time>
      </trkpt>
      <trkpt lat="44.84642" lon="4.17226">
        <ele>1475</ele>
        <time>2022-05-08T14:25:18Z</time>
      </trkpt>
      <trkpt lat="44.84626" lon="4.17235">
        <ele>1475</ele>
        <time>2022-05-08T14:25:18Z</time>
      </trkpt>
      <trkpt lat="44.84595" lon="4.1727">
        <ele>1474</ele>
        <time>2022-05-08T14:25:18Z</time>
      </trkpt>
      <trkpt lat="44.84595" lon="4.1727">
        <ele>1471</ele>
        <time>2022-05-08T14:25:18Z</time>
      </trkpt>
      <trkpt lat="44.84589" lon="4.17278">
        <ele>1471</ele>
        <time>2022-05-08T14:25:18Z</time>
      </trkpt>
      <trkpt lat="44.84555" lon="4.17305">
        <ele>1471</ele>
        <time>2022-05-08T14:25:18Z</time>
      </trkpt>
      <trkpt lat="44.84544" lon="4.17308">
        <ele>1470</ele>
        <time>2022-05-08T14:25:18Z</time>
      </trkpt>
      <trkpt lat="44.84534" lon="4.17317">
        <ele>1470</ele>
        <time>2022-05-08T14:25:18Z</time>
      </trkpt>
      <trkpt lat="44.84526" lon="4.17329">
        <ele>1469</ele>
        <time>2022-05-08T14:25:18Z</time>
      </trkpt>
      <trkpt lat="44.84473" lon="4.17386">
        <ele>1468</ele>
        <time>2022-05-08T14:25:18Z</time>
      </trkpt>
      <trkpt lat="44.84464" lon="4.17399">
        <ele>1467</ele>
        <time>2022-05-08T14:25:18Z</time>
      </trkpt>
      <trkpt lat="44.8446" lon="4.17411">
        <ele>1466</ele>
        <time>2022-05-08T14:25:18Z</time>
      </trkpt>
      <trkpt lat="44.84455" lon="4.17433">
        <ele>1465</ele>
        <time>2022-05-08T14:25:18Z</time>
      </trkpt>
      <trkpt lat="44.84426" lon="4.17462">
        <ele>1464</ele>
        <time>2022-05-08T14:25:18Z</time>
      </trkpt>
      <trkpt lat="44.84412" lon="4.17499">
        <ele>1463</ele>
        <time>2022-05-08T14:25:18Z</time>
      </trkpt>
      <trkpt lat="44.84409" lon="4.17518">
        <ele>1462</ele>
        <time>2022-05-08T14:25:18Z</time>
      </trkpt>
      <trkpt lat="44.84399" lon="4.17541">
        <ele>1461</ele>
        <time>2022-05-08T14:25:18Z</time>
      </trkpt>
      <trkpt lat="44.84374" lon="4.17572">
        <ele>1459</ele>
        <time>2022-05-08T14:25:18Z</time>
      </trkpt>
      <trkpt lat="44.8436" lon="4.17599">
        <ele>1458</ele>
        <time>2022-05-08T14:25:18Z</time>
      </trkpt>
      <trkpt lat="44.84339" lon="4.17709">
        <ele>1456</ele>
        <time>2022-05-08T14:25:18Z</time>
      </trkpt>
      <trkpt lat="44.84288" lon="4.17844">
        <ele>1451</ele>
        <time>2022-05-08T14:25:18Z</time>
      </trkpt>
      <trkpt lat="44.8428" lon="4.17853">
        <ele>1448</ele>
        <time>2022-05-08T14:25:18Z</time>
      </trkpt>
      <trkpt lat="44.84272" lon="4.17855">
        <ele>1446</ele>
        <time>2022-05-08T14:25:18Z</time>
      </trkpt>
      <trkpt lat="44.84264" lon="4.17862">
        <ele>1444</ele>
        <time>2022-05-08T14:25:18Z</time>
      </trkpt>
      <trkpt lat="44.84236" lon="4.17905">
        <ele>1441</ele>
        <time>2022-05-08T14:25:18Z</time>
      </trkpt>
      <trkpt lat="44.84236" lon="4.17905">
        <ele>1431</ele>
        <time>2022-05-08T14:25:18Z</time>
      </trkpt>
      <trkpt lat="44.84171" lon="4.17976">
        <ele>1430</ele>
        <time>2022-05-08T14:25:18Z</time>
      </trkpt>
      <trkpt lat="44.84154" lon="4.17982">
        <ele>1430</ele>
        <time>2022-05-08T14:25:18Z</time>
      </trkpt>
      <trkpt lat="44.84145" lon="4.17983">
        <ele>1430</ele>
        <time>2022-05-08T14:25:18Z</time>
      </trkpt>
      <trkpt lat="44.84093" lon="4.18038">
        <ele>1430</ele>
        <time>2022-05-08T14:25:18Z</time>
      </trkpt>
      <trkpt lat="44.83989" lon="4.18137">
        <ele>1433</ele>
        <time>2022-05-08T14:25:18Z</time>
      </trkpt>
      <trkpt lat="44.83938" lon="4.18206">
        <ele>1445</ele>
        <time>2022-05-08T14:25:18Z</time>
      </trkpt>
      <trkpt lat="44.83886" lon="4.18236">
        <ele>1460</ele>
        <time>2022-05-08T14:25:18Z</time>
      </trkpt>
      <trkpt lat="44.83834" lon="4.18244">
        <ele>1474</ele>
        <time>2022-05-08T14:25:18Z</time>
      </trkpt>
      <trkpt lat="44.84041" lon="4.1815">
        <ele>1459</ele>
        <time>2022-05-08T14:25:18Z</time>
      </trkpt>
      <trkpt lat="44.84093" lon="4.1809">
        <ele>1449</ele>
        <time>2022-05-08T14:25:18Z</time>
      </trkpt>
      <trkpt lat="44.84145" lon="4.18051">
        <ele>1443</ele>
        <time>2022-05-08T14:25:18Z</time>
      </trkpt>
      <trkpt lat="44.84193" lon="4.1797">
        <ele>1428</ele>
        <time>2022-05-08T14:25:18Z</time>
      </trkpt>
      <trkpt lat="44.84245" lon="4.1797">
        <ele>1429</ele>
        <time>2022-05-08T14:25:18Z</time>
      </trkpt>
      <trkpt lat="44.843" lon="4.17961">
        <ele>1430</ele>
        <time>2022-05-08T14:25:18Z</time>
      </trkpt>
      <trkpt lat="44.84403" lon="4.17897">
        <ele>1435</ele>
        <time>2022-05-08T14:25:18Z</time>
      </trkpt>
      <trkpt lat="44.84455" lon="4.17832">
        <ele>1441</ele>
        <time>2022-05-08T14:25:18Z</time>
      </trkpt>
      <trkpt lat="44.84562" lon="4.17738">
        <ele>1460</ele>
        <time>2022-05-08T14:25:18Z</time>
      </trkpt>
      <trkpt lat="44.84607" lon="4.17665">
        <ele>1482</ele>
        <time>2022-05-08T14:25:18Z</time>
      </trkpt>
      <trkpt lat="44.84659" lon="4.17648">
        <ele>1496</ele>
        <time>2022-05-08T14:25:18Z</time>
      </trkpt>
      <trkpt lat="44.84708" lon="4.17721">
        <ele>1494</ele>
        <time>2022-05-08T14:25:18Z</time>
      </trkpt>
      <trkpt lat="44.84732" lon="4.17794">
        <ele>1492</ele>
        <time>2022-05-08T14:25:18Z</time>
      </trkpt>
      <trkpt lat="44.84835" lon="4.17721">
        <ele>1490</ele>
        <time>2022-05-08T14:25:18Z</time>
      </trkpt>
      <trkpt lat="44.84887" lon="4.17704">
        <ele>1489</ele>
        <time>2022-05-08T14:25:18Z</time>
      </trkpt>
      <trkpt lat="44.84939" lon="4.17704">
        <ele>1489</ele>
        <time>2022-05-08T14:25:18Z</time>
      </trkpt>
      <trkpt lat="44.84991" lon="4.17716">
        <ele>1489</ele>
        <time>2022-05-08T14:25:18Z</time>
      </trkpt>
      <trkpt lat="44.8507" lon="4.17777">
        <ele>1488</ele>
        <time>2022-05-08T14:25:18Z</time>
      </trkpt>
      <trkpt lat="44.8507" lon="4.17777">
        <ele>1487</ele>
        <time>2022-05-08T14:25:18Z</time>
      </trkpt>
      <trkpt lat="44.85093" lon="4.17818">
        <ele>1486</ele>
        <time>2022-05-08T14:25:18Z</time>
      </trkpt>
      <trkpt lat="44.85108" lon="4.17829">
        <ele>1486</ele>
        <time>2022-05-08T14:25:18Z</time>
      </trkpt>
      <trkpt lat="44.85115" lon="4.17842">
        <ele>1485</ele>
        <time>2022-05-08T14:25:18Z</time>
      </trkpt>
      <trkpt lat="44.85122" lon="4.17849">
        <ele>1485</ele>
        <time>2022-05-08T14:25:18Z</time>
      </trkpt>
      <trkpt lat="44.85224" lon="4.17892">
        <ele>1485</ele>
        <time>2022-05-08T14:25:18Z</time>
      </trkpt>
      <trkpt lat="44.85238" lon="4.17906">
        <ele>1485</ele>
        <time>2022-05-08T14:25:18Z</time>
      </trkpt>
      <trkpt lat="44.85247" lon="4.17907">
        <ele>1485</ele>
        <time>2022-05-08T14:25:18Z</time>
      </trkpt>
      <trkpt lat="44.85273" lon="4.17925">
        <ele>1485</ele>
        <time>2022-05-08T14:25:18Z</time>
      </trkpt>
      <trkpt lat="44.85405" lon="4.17973">
        <ele>1485</ele>
        <time>2022-05-08T14:25:18Z</time>
      </trkpt>
      <trkpt lat="44.85418" lon="4.17972">
        <ele>1485</ele>
        <time>2022-05-08T14:25:18Z</time>
      </trkpt>
      <trkpt lat="44.85472" lon="4.18014">
        <ele>1483</ele>
        <time>2022-05-08T14:25:18Z</time>
      </trkpt>
      <trkpt lat="44.85477" lon="4.18004">
        <ele>1482</ele>
        <time>2022-05-08T14:25:18Z</time>
      </trkpt>
      <trkpt lat="44.85477" lon="4.18004">
        <ele>1479</ele>
        <time>2022-05-08T14:25:18Z</time>
      </trkpt>
      <trkpt lat="44.85527" lon="4.17808">
        <ele>1485</ele>
        <time>2022-05-08T14:25:18Z</time>
      </trkpt>
      <trkpt lat="44.85533" lon="4.17757">
        <ele>1491</ele>
        <time>2022-05-08T14:25:18Z</time>
      </trkpt>
      <trkpt lat="44.85543" lon="4.17734">
        <ele>1496</ele>
        <time>2022-05-08T14:25:18Z</time>
      </trkpt>
      <trkpt lat="44.85556" lon="4.17714">
        <ele>1499</ele>
        <time>2022-05-08T14:25:18Z</time>
      </trkpt>
      <trkpt lat="44.85563" lon="4.17698">
        <ele>1501</ele>
        <time>2022-05-08T14:25:18Z</time>
      </trkpt>
      <trkpt lat="44.85567" lon="4.17718">
        <ele>1503</ele>
        <time>2022-05-08T14:25:18Z</time>
      </trkpt>
      <trkpt lat="44.85592" lon="4.17763">
        <ele>1502</ele>
        <time>2022-05-08T14:25:18Z</time>
      </trkpt>
      <trkpt lat="44.85604" lon="4.17768">
        <ele>1501</ele>
        <time>2022-05-08T14:25:18Z</time>
      </trkpt>
      <trkpt lat="44.85665" lon="4.17717">
        <ele>1501</ele>
        <time>2022-05-08T14:25:18Z</time>
      </trkpt>
      <trkpt lat="44.85718" lon="4.17638">
        <ele>1501</ele>
        <time>2022-05-08T14:25:18Z</time>
      </trkpt>
      <trkpt lat="44.85751" lon="4.17605">
        <ele>1501</ele>
        <time>2022-05-08T14:25:18Z</time>
      </trkpt>
      <trkpt lat="44.85751" lon="4.17605">
        <ele>1502</ele>
        <time>2022-05-08T14:25:18Z</time>
      </trkpt>
      <trkpt lat="44.8577" lon="4.17578">
        <ele>1503</ele>
        <time>2022-05-08T14:25:18Z</time>
      </trkpt>
      <trkpt lat="44.85787" lon="4.17565">
        <ele>1503</ele>
        <time>2022-05-08T14:25:18Z</time>
      </trkpt>
      <trkpt lat="44.85792" lon="4.17552">
        <ele>1503</ele>
        <time>2022-05-08T14:25:18Z</time>
      </trkpt>
      <trkpt lat="44.85789" lon="4.17538">
        <ele>1503</ele>
        <time>2022-05-08T14:25:18Z</time>
      </trkpt>
      <trkpt lat="44.8578" lon="4.17517">
        <ele>1504</ele>
        <time>2022-05-08T14:25:18Z</time>
      </trkpt>
      <trkpt lat="44.85776" lon="4.17501">
        <ele>1506</ele>
        <time>2022-05-08T14:25:18Z</time>
      </trkpt>
      <trkpt lat="44.85754" lon="4.17488">
        <ele>1508</ele>
        <time>2022-05-08T14:25:18Z</time>
      </trkpt>
      <trkpt lat="44.85734" lon="4.17464">
        <ele>1512</ele>
        <time>2022-05-08T14:25:18Z</time>
      </trkpt>
      <trkpt lat="44.85714" lon="4.17402">
        <ele>1519</ele>
        <time>2022-05-08T14:25:18Z</time>
      </trkpt>
      <trkpt lat="44.85703" lon="4.17383">
        <ele>1553</ele>
        <time>2022-05-08T14:25:18Z</time>
      </trkpt>
      <trkpt lat="44.85686" lon="4.17393">
        <ele>1554</ele>
        <time>2022-05-08T14:25:18Z</time>
      </trkpt>
      <trkpt lat="44.85679" lon="4.17402">
        <ele>1555</ele>
        <time>2022-05-08T14:25:18Z</time>
      </trkpt>
      <trkpt lat="44.85664" lon="4.17404">
        <ele>1557</ele>
        <time>2022-05-08T14:25:18Z</time>
      </trkpt>
      <trkpt lat="44.85652" lon="4.17399">
        <ele>1559</ele>
        <time>2022-05-08T14:25:18Z</time>
      </trkpt>
      <trkpt lat="44.85639" lon="4.174">
        <ele>1561</ele>
        <time>2022-05-08T14:25:18Z</time>
      </trkpt>
      <trkpt lat="44.85589" lon="4.17383">
        <ele>1564</ele>
        <time>2022-05-08T14:25:18Z</time>
      </trkpt>
      <trkpt lat="44.85581" lon="4.17383">
        <ele>1567</ele>
        <time>2022-05-08T14:25:18Z</time>
      </trkpt>
      <trkpt lat="44.85543" lon="4.17374">
        <ele>1571</ele>
        <time>2022-05-08T14:25:18Z</time>
      </trkpt>
      <trkpt lat="44.85531" lon="4.17376">
        <ele>1574</ele>
        <time>2022-05-08T14:25:18Z</time>
      </trkpt>
      <trkpt lat="44.85523" lon="4.17373">
        <ele>1576</ele>
        <time>2022-05-08T14:25:18Z</time>
      </trkpt>
      <trkpt lat="44.85523" lon="4.17373">
        <ele>1589</ele>
        <time>2022-05-08T14:25:18Z</time>
      </trkpt>
      <trkpt lat="44.85514" lon="4.17364">
        <ele>1589</ele>
        <time>2022-05-08T14:25:18Z</time>
      </trkpt>
      <trkpt lat="44.8552" lon="4.17354">
        <ele>1589</ele>
        <time>2022-05-08T14:25:18Z</time>
      </trkpt>
      <trkpt lat="44.85523" lon="4.17342">
        <ele>1589</ele>
        <time>2022-05-08T14:25:18Z</time>
      </trkpt>
      <trkpt lat="44.85567" lon="4.1729">
        <ele>1588</ele>
        <time>2022-05-08T14:25:18Z</time>
      </trkpt>
      <trkpt lat="44.85584" lon="4.17278">
        <ele>1586</ele>
        <time>2022-05-08T14:25:18Z</time>
      </trkpt>
      <trkpt lat="44.85597" lon="4.17255">
        <ele>1584</ele>
        <time>2022-05-08T14:25:18Z</time>
      </trkpt>
      <trkpt lat="44.85598" lon="4.17242">
        <ele>1582</ele>
        <time>2022-05-08T14:25:18Z</time>
      </trkpt>
      <trkpt lat="44.85596" lon="4.17232">
        <ele>1580</ele>
        <time>2022-05-08T14:25:18Z</time>
      </trkpt>
      <trkpt lat="44.85596" lon="4.17217">
        <ele>1578</ele>
        <time>2022-05-08T14:25:18Z</time>
      </trkpt>
      <trkpt lat="44.85603" lon="4.17207">
        <ele>1576</ele>
        <time>2022-05-08T14:25:18Z</time>
      </trkpt>
      <trkpt lat="44.85626" lon="4.17181">
        <ele>1574</ele>
        <time>2022-05-08T14:25:18Z</time>
      </trkpt>
      <trkpt lat="44.8564" lon="4.17149">
        <ele>1572</ele>
        <time>2022-05-08T14:25:18Z</time>
      </trkpt>
      <trkpt lat="44.85641" lon="4.17128">
        <ele>1569</ele>
        <time>2022-05-08T14:25:18Z</time>
      </trkpt>
      <trkpt lat="44.85646" lon="4.17112">
        <ele>1567</ele>
        <time>2022-05-08T14:25:18Z</time>
      </trkpt>
      <trkpt lat="44.85647" lon="4.17099">
        <ele>1566</ele>
        <time>2022-05-08T14:25:18Z</time>
      </trkpt>
      <trkpt lat="44.85655" lon="4.1708">
        <ele>1564</ele>
        <time>2022-05-08T14:25:18Z</time>
      </trkpt>
      <trkpt lat="44.85661" lon="4.17045">
        <ele>1562</ele>
        <time>2022-05-08T14:25:18Z</time>
      </trkpt>
      <trkpt lat="44.85666" lon="4.17031">
        <ele>1561</ele>
        <time>2022-05-08T14:25:18Z</time>
      </trkpt>
      <trkpt lat="44.85674" lon="4.17019">
        <ele>1559</ele>
        <time>2022-05-08T14:25:18Z</time>
      </trkpt>
      <trkpt lat="44.85705" lon="4.16961">
        <ele>1557</ele>
        <time>2022-05-08T14:25:18Z</time>
      </trkpt>
      <trkpt lat="44.85723" lon="4.16936">
        <ele>1555</ele>
        <time>2022-05-08T14:25:18Z</time>
      </trkpt>
      <trkpt lat="44.85748" lon="4.16952">
        <ele>1554</ele>
        <time>2022-05-08T14:25:18Z</time>
      </trkpt>
      <trkpt lat="44.85783" lon="4.16968">
        <ele>1553</ele>
        <time>2022-05-08T14:25:18Z</time>
      </trkpt>
      <trkpt lat="44.85825" lon="4.16997">
        <ele>1552</ele>
        <time>2022-05-08T14:25:18Z</time>
      </trkpt>
      <trkpt lat="44.85842" lon="4.17021">
        <ele>1551</ele>
        <time>2022-05-08T14:25:18Z</time>
      </trkpt>
      <trkpt lat="44.85842" lon="4.17021">
        <ele>1546</ele>
        <time>2022-05-08T14:25:18Z</time>
      </trkpt>
      <trkpt lat="44.85871" lon="4.17045">
        <ele>1546</ele>
        <time>2022-05-08T14:25:18Z</time>
      </trkpt>
      <trkpt lat="44.8588" lon="4.17066">
        <ele>1545</ele>
        <time>2022-05-08T14:25:18Z</time>
      </trkpt>
      <trkpt lat="44.85881" lon="4.17077">
        <ele>1544</ele>
        <time>2022-05-08T14:25:18Z</time>
      </trkpt>
      <trkpt lat="44.85881" lon="4.17134">
        <ele>1543</ele>
        <time>2022-05-08T14:25:18Z</time>
      </trkpt>
      <trkpt lat="44.85885" lon="4.17146">
        <ele>1541</ele>
        <time>2022-05-08T14:25:18Z</time>
      </trkpt>
      <trkpt lat="44.85885" lon="4.17146">
        <ele>1534</ele>
        <time>2022-05-08T14:25:18Z</time>
      </trkpt>
      <trkpt lat="44.85928" lon="4.17073">
        <ele>1536</ele>
        <time>2022-05-08T14:25:18Z</time>
      </trkpt>
      <trkpt lat="44.85976" lon="4.17">
        <ele>1538</ele>
        <time>2022-05-08T14:25:18Z</time>
      </trkpt>
      <trkpt lat="44.86046" lon="4.16627">
        <ele>1560</ele>
        <time>2022-05-08T14:25:18Z</time>
      </trkpt>
      <trkpt lat="44.86025" lon="4.167">
        <ele>1566</ele>
        <time>2022-05-08T14:25:18Z</time>
      </trkpt>
      <trkpt lat="44.86007" lon="4.16772">
        <ele>1566</ele>
        <time>2022-05-08T14:25:18Z</time>
      </trkpt>
      <trkpt lat="44.85991" lon="4.16918">
        <ele>1561</ele>
        <time>2022-05-08T14:25:18Z</time>
      </trkpt>
      <trkpt lat="44.85885" lon="4.17146">
        <ele>1534</ele>
        <time>2022-05-08T14:25:18Z</time>
      </trkpt>
      <trkpt lat="44.85885" lon="4.17146">
        <ele>1534</ele>
        <time>2022-05-08T14:25:18Z</time>
      </trkpt>
      <trkpt lat="44.85881" lon="4.17134">
        <ele>1535</ele>
        <time>2022-05-08T14:25:18Z</time>
      </trkpt>
      <trkpt lat="44.8588" lon="4.17066">
        <ele>1537</ele>
        <time>2022-05-08T14:25:18Z</time>
      </trkpt>
      <trkpt lat="44.85871" lon="4.17045">
        <ele>1538</ele>
        <time>2022-05-08T14:25:18Z</time>
      </trkpt>
      <trkpt lat="44.85783" lon="4.16968">
        <ele>1541</ele>
        <time>2022-05-08T14:25:18Z</time>
      </trkpt>
      <trkpt lat="44.85723" lon="4.16936">
        <ele>1543</ele>
        <time>2022-05-08T14:25:18Z</time>
      </trkpt>
      <trkpt lat="44.85669" lon="4.16837">
        <ele>1542</ele>
        <time>2022-05-08T14:25:18Z</time>
      </trkpt>
      <trkpt lat="44.85669" lon="4.16837">
        <ele>1541</ele>
        <time>2022-05-08T14:25:18Z</time>
      </trkpt>
      <trkpt lat="44.85646" lon="4.1677">
        <ele>1539</ele>
        <time>2022-05-08T14:25:18Z</time>
      </trkpt>
      <trkpt lat="44.85644" lon="4.16608">
        <ele>1533</ele>
        <time>2022-05-08T14:25:18Z</time>
      </trkpt>
      <trkpt lat="44.85641" lon="4.16597">
        <ele>1530</ele>
        <time>2022-05-08T14:25:18Z</time>
      </trkpt>
      <trkpt lat="44.8563" lon="4.16581">
        <ele>1527</ele>
        <time>2022-05-08T14:25:18Z</time>
      </trkpt>
      <trkpt lat="44.85622" lon="4.16545">
        <ele>1524</ele>
        <time>2022-05-08T14:25:18Z</time>
      </trkpt>
      <trkpt lat="44.85621" lon="4.16532">
        <ele>1522</ele>
        <time>2022-05-08T14:25:18Z</time>
      </trkpt>
      <trkpt lat="44.85625" lon="4.16519">
        <ele>1520</ele>
        <time>2022-05-08T14:25:18Z</time>
      </trkpt>
      <trkpt lat="44.85626" lon="4.16486">
        <ele>1518</ele>
        <time>2022-05-08T14:25:18Z</time>
      </trkpt>
      <trkpt lat="44.85619" lon="4.16429">
        <ele>1516</ele>
        <time>2022-05-08T14:25:18Z</time>
      </trkpt>
      <trkpt lat="44.85621" lon="4.1641">
        <ele>1513</ele>
        <time>2022-05-08T14:25:18Z</time>
      </trkpt>
      <trkpt lat="44.85632" lon="4.16376">
        <ele>1511</ele>
        <time>2022-05-08T14:25:18Z</time>
      </trkpt>
      <trkpt lat="44.85642" lon="4.16366">
        <ele>1509</ele>
        <time>2022-05-08T14:25:18Z</time>
      </trkpt>
      <trkpt lat="44.85648" lon="4.16349">
        <ele>1508</ele>
        <time>2022-05-08T14:25:18Z</time>
      </trkpt>
      <trkpt lat="44.85699" lon="4.1628">
        <ele>1505</ele>
        <time>2022-05-08T14:25:18Z</time>
      </trkpt>
      <trkpt lat="44.85702" lon="4.16258">
        <ele>1503</ele>
        <time>2022-05-08T14:25:18Z</time>
      </trkpt>
      <trkpt lat="44.85701" lon="4.16247">
        <ele>1502</ele>
        <time>2022-05-08T14:25:18Z</time>
      </trkpt>
      <trkpt lat="44.85697" lon="4.16233">
        <ele>1501</ele>
        <time>2022-05-08T14:25:18Z</time>
      </trkpt>
      <trkpt lat="44.85642" lon="4.16214">
        <ele>1498</ele>
        <time>2022-05-08T14:25:18Z</time>
      </trkpt>
      <trkpt lat="44.85642" lon="4.16214">
        <ele>1488</ele>
        <time>2022-05-08T14:25:18Z</time>
      </trkpt>
      <trkpt lat="44.85599" lon="4.1617">
        <ele>1487</ele>
        <time>2022-05-08T14:25:18Z</time>
      </trkpt>
      <trkpt lat="44.85596" lon="4.16155">
        <ele>1486</ele>
        <time>2022-05-08T14:25:18Z</time>
      </trkpt>
      <trkpt lat="44.85598" lon="4.16142">
        <ele>1484</ele>
        <time>2022-05-08T14:25:18Z</time>
      </trkpt>
      <trkpt lat="44.85602" lon="4.16132">
        <ele>1484</ele>
        <time>2022-05-08T14:25:18Z</time>
      </trkpt>
      <trkpt lat="44.85597" lon="4.16124">
        <ele>1483</ele>
        <time>2022-05-08T14:25:18Z</time>
      </trkpt>
      <trkpt lat="44.85558" lon="4.16123">
        <ele>1481</ele>
        <time>2022-05-08T14:25:18Z</time>
      </trkpt>
      <trkpt lat="44.85536" lon="4.16131">
        <ele>1480</ele>
        <time>2022-05-08T14:25:18Z</time>
      </trkpt>
      <trkpt lat="44.85503" lon="4.16159">
        <ele>1479</ele>
        <time>2022-05-08T14:25:18Z</time>
      </trkpt>
      <trkpt lat="44.85473" lon="4.16163">
        <ele>1477</ele>
        <time>2022-05-08T14:25:18Z</time>
      </trkpt>
      <trkpt lat="44.85455" lon="4.16158">
        <ele>1476</ele>
        <time>2022-05-08T14:25:18Z</time>
      </trkpt>
      <trkpt lat="44.85447" lon="4.1615">
        <ele>1475</ele>
        <time>2022-05-08T14:25:18Z</time>
      </trkpt>
      <trkpt lat="44.85441" lon="4.16141">
        <ele>1474</ele>
        <time>2022-05-08T14:25:18Z</time>
      </trkpt>
      <trkpt lat="44.85434" lon="4.16122">
        <ele>1473</ele>
        <time>2022-05-08T14:25:18Z</time>
      </trkpt>
      <trkpt lat="44.85432" lon="4.16105">
        <ele>1472</ele>
        <time>2022-05-08T14:25:18Z</time>
      </trkpt>
      <trkpt lat="44.85441" lon="4.16064">
        <ele>1470</ele>
        <time>2022-05-08T14:25:18Z</time>
      </trkpt>
      <trkpt lat="44.85441" lon="4.16064">
        <ele>1462</ele>
        <time>2022-05-08T14:25:18Z</time>
      </trkpt>
      <trkpt lat="44.8545" lon="4.15966">
        <ele>1460</ele>
        <time>2022-05-08T14:25:18Z</time>
      </trkpt>
      <trkpt lat="44.85449" lon="4.1595">
        <ele>1459</ele>
        <time>2022-05-08T14:25:18Z</time>
      </trkpt>
      <trkpt lat="44.85433" lon="4.15909">
        <ele>1457</ele>
        <time>2022-05-08T14:25:18Z</time>
      </trkpt>
      <trkpt lat="44.85413" lon="4.15869">
        <ele>1456</ele>
        <time>2022-05-08T14:25:18Z</time>
      </trkpt>
      <trkpt lat="44.85406" lon="4.15861">
        <ele>1455</ele>
        <time>2022-05-08T14:25:18Z</time>
      </trkpt>
      <trkpt lat="44.85395" lon="4.15854">
        <ele>1454</ele>
        <time>2022-05-08T14:25:18Z</time>
      </trkpt>
      <trkpt lat="44.85383" lon="4.15841">
        <ele>1447</ele>
        <time>2022-05-08T14:25:18Z</time>
      </trkpt>
      <trkpt lat="44.85377" lon="4.15811">
        <ele>1447</ele>
        <time>2022-05-08T14:25:18Z</time>
      </trkpt>
      <trkpt lat="44.85359" lon="4.15777">
        <ele>1446</ele>
        <time>2022-05-08T14:25:18Z</time>
      </trkpt>
      <trkpt lat="44.85359" lon="4.15777">
        <ele>1441</ele>
        <time>2022-05-08T14:25:18Z</time>
      </trkpt>
      <trkpt lat="44.85346" lon="4.15752">
        <ele>1441</ele>
        <time>2022-05-08T14:25:18Z</time>
      </trkpt>
      <trkpt lat="44.85344" lon="4.15736">
        <ele>1440</ele>
        <time>2022-05-08T14:25:18Z</time>
      </trkpt>
      <trkpt lat="44.8533" lon="4.15711">
        <ele>1439</ele>
        <time>2022-05-08T14:25:18Z</time>
      </trkpt>
      <trkpt lat="44.85336" lon="4.15702">
        <ele>1433</ele>
        <time>2022-05-08T14:25:18Z</time>
      </trkpt>
    </trkseg>
  </trk>
</gpx>